contact:dominique.lefevre@mio.osupytheas.fr, maurice.libes@osupytheas.fr, didier.mallarino@osupytheas.fr
Project:EMSO http://www.emso-fr.org/EMSO-France
Depth: 2436.0 m
Title:EMSO Ligure Ouest : Data MII capteur CSTAR
DateTime,Latitude,Longitude,Instrument_Serial,Reference_Counts,Signal_Counts,Corrected_Signal_raw_counts,Calculated_Beam_c_inverse_meters,Internal_thermistor_counts
DateTime,Latitude,Longitude,Instrument_Serial,Reference_Counts,Signal_Counts,Corrected_Signal_raw_counts,Calculated_Beam_c_inverse_meters,Internal_thermistor_counts
2019-06-22T00:02:59,42.805,6.029,CST-1368DR,8954,12528,15516,0.026,551
2019-06-22T00:06:01,42.805,6.029,CST-1368DR,8954,12529,15516,0.026,551
2019-06-22T00:09:02,42.805,6.029,CST-1368DR,8954,12530,15518,0.025,550
2019-06-22T00:12:04,42.805,6.029,CST-1368DR,8954,12525,15512,0.027,550
2019-06-22T00:15:05,42.805,6.029,CST-1368DR,8954,12529,15516,0.026,551
2019-06-22T00:18:06,42.805,6.029,CST-1368DR,8954,12530,15518,0.025,551
2019-06-22T00:21:08,42.805,6.029,CST-1368DR,8954,12531,15520,0.025,551
2019-06-22T00:24:09,42.805,6.029,CST-1368DR,8953,12529,15519,0.025,551
2019-06-22T00:27:11,42.805,6.029,CST-1368DR,8954,12532,15521,0.024,551
2019-06-22T00:30:12,42.805,6.029,CST-1368DR,8953,12528,15517,0.025,551
2019-06-22T00:33:13,42.805,6.029,CST-1368DR,8953,12530,15519,0.025,551
2019-06-22T00:36:15,42.805,6.029,CST-1368DR,8953,12530,15520,0.025,551
2019-06-22T00:39:16,42.805,6.029,CST-1368DR,8953,12531,15521,0.024,551
2019-06-22T00:42:18,42.805,6.029,CST-1368DR,8953,12526,15515,0.026,551
2019-06-22T00:45:19,42.805,6.029,CST-1368DR,8953,12529,15519,0.025,551
2019-06-22T00:48:21,42.805,6.029,CST-1368DR,8953,12530,15520,0.025,551
2019-06-22T00:51:22,42.805,6.029,CST-1368DR,8953,12527,15516,0.026,551
2019-06-22T00:54:23,42.805,6.029,CST-1368DR,8953,12526,15515,0.026,550
2019-06-22T00:57:25,42.805,6.029,CST-1368DR,8953,12529,15519,0.025,551
2019-06-22T01:00:26,42.805,6.029,CST-1368DR,8953,12527,15516,0.026,550
2019-06-22T01:03:28,42.805,6.029,CST-1368DR,8953,12529,15519,0.025,550
2019-06-22T01:06:29,42.805,6.029,CST-1368DR,8953,12529,15519,0.025,551
2019-06-22T01:09:30,42.805,6.029,CST-1368DR,8953,12528,15517,0.025,550
2019-06-22T01:12:32,42.805,6.029,CST-1368DR,8953,12528,15517,0.025,551
2019-06-22T01:15:33,42.805,6.029,CST-1368DR,8953,12529,15518,0.025,551
2019-06-22T01:18:35,42.805,6.029,CST-1368DR,8953,12528,15517,0.025,551
2019-06-22T01:21:36,42.805,6.029,CST-1368DR,8953,12529,15519,0.025,550
2019-06-22T01:24:37,42.805,6.029,CST-1368DR,8953,12528,15517,0.025,551
2019-06-22T01:27:39,42.805,6.029,CST-1368DR,8953,12528,15517,0.025,551
2019-06-22T01:30:40,42.805,6.029,CST-1368DR,8953,12525,15513,0.026,551
2019-06-22T01:33:42,42.805,6.029,CST-1368DR,8953,12526,15515,0.026,550
2019-06-22T01:36:43,42.805,6.029,CST-1368DR,8953,12528,15517,0.025,551
2019-06-22T01:39:45,42.805,6.029,CST-1368DR,8953,12528,15517,0.025,551
2019-06-22T01:42:46,42.805,6.029,CST-1368DR,8953,12527,15516,0.026,551
2019-06-22T01:45:47,42.805,6.029,CST-1368DR,8953,12527,15516,0.026,551
2019-06-22T01:48:49,42.805,6.029,CST-1368DR,8953,12526,15515,0.026,551
2019-06-22T01:51:50,42.805,6.029,CST-1368DR,8953,12527,15516,0.026,550
2019-06-22T01:54:52,42.805,6.029,CST-1368DR,8953,12528,15517,0.025,551
2019-06-22T01:57:53,42.805,6.029,CST-1368DR,8953,12527,15516,0.026,551
2019-06-22T02:00:54,42.805,6.029,CST-1368DR,8953,12527,15516,0.026,551
2019-06-22T02:03:56,42.805,6.029,CST-1368DR,8953,12526,15514,0.026,551
2019-06-22T02:06:57,42.805,6.029,CST-1368DR,8953,12528,15517,0.025,551
2019-06-22T02:09:59,42.805,6.029,CST-1368DR,8953,12528,15517,0.025,551
2019-06-22T02:13:00,42.805,6.029,CST-1368DR,8953,12529,15519,0.025,550
2019-06-22T02:16:01,42.805,6.029,CST-1368DR,8953,12527,15516,0.026,551
2019-06-22T02:19:03,42.805,6.029,CST-1368DR,8953,12527,15516,0.026,551
2019-06-22T02:22:04,42.805,6.029,CST-1368DR,8953,12528,15517,0.025,551
2019-06-22T02:25:06,42.805,6.029,CST-1368DR,8953,12527,15516,0.026,551
2019-06-22T02:28:07,42.805,6.029,CST-1368DR,8952,12526,15516,0.026,551
2019-06-22T02:31:09,42.805,6.029,CST-1368DR,8952,12529,15520,0.025,551
2019-06-22T02:34:10,42.805,6.029,CST-1368DR,8952,12525,15515,0.026,551
2019-06-22T02:37:11,42.805,6.029,CST-1368DR,8952,12527,15518,0.025,550
2019-06-22T02:40:13,42.805,6.029,CST-1368DR,8952,12526,15516,0.026,550
2019-06-22T02:43:14,42.805,6.029,CST-1368DR,8952,12526,15517,0.025,551
2019-06-22T02:46:16,42.805,6.029,CST-1368DR,8952,12528,15519,0.025,551
2019-06-22T02:49:17,42.805,6.029,CST-1368DR,8952,12527,15517,0.025,551
2019-06-22T02:52:18,42.805,6.029,CST-1368DR,8952,12523,15513,0.026,550
2019-06-22T02:55:20,42.805,6.029,CST-1368DR,8952,12528,15519,0.025,550
2019-06-22T02:58:21,42.805,6.029,CST-1368DR,8952,12525,15515,0.026,551
2019-06-22T03:01:23,42.805,6.029,CST-1368DR,8952,12526,15516,0.026,551
2019-06-22T03:04:24,42.805,6.029,CST-1368DR,8952,12526,15517,0.025,550
2019-06-22T03:07:25,42.805,6.029,CST-1368DR,8952,12527,15518,0.025,551
2019-06-22T03:10:27,42.805,6.029,CST-1368DR,8952,12522,15512,0.027,550
2019-06-22T03:13:28,42.805,6.029,CST-1368DR,8952,12526,15516,0.026,551
2019-06-22T03:16:30,42.805,6.029,CST-1368DR,8952,12519,15508,0.028,551
2019-06-22T03:19:31,42.805,6.029,CST-1368DR,8952,12526,15517,0.025,551
2019-06-22T03:22:32,42.805,6.029,CST-1368DR,8952,12524,15514,0.026,551
2019-06-22T03:25:34,42.805,6.029,CST-1368DR,8952,12526,15516,0.026,551
2019-06-22T03:28:35,42.805,6.029,CST-1368DR,8952,12527,15518,0.025,551
2019-06-22T03:31:37,42.805,6.029,CST-1368DR,8952,12527,15518,0.025,551
2019-06-22T03:34:38,42.805,6.029,CST-1368DR,8952,12528,15519,0.025,551
2019-06-22T03:37:40,42.805,6.029,CST-1368DR,8952,12527,15517,0.025,551
2019-06-22T03:40:41,42.805,6.029,CST-1368DR,8952,12524,15514,0.026,551
2019-06-22T03:43:42,42.805,6.029,CST-1368DR,8952,12525,15515,0.026,551
2019-06-22T03:46:44,42.805,6.029,CST-1368DR,8952,12519,15507,0.028,551
2019-06-22T03:49:45,42.805,6.029,CST-1368DR,8952,12523,15512,0.027,551
2019-06-22T03:52:47,42.805,6.029,CST-1368DR,8952,12525,15516,0.026,551
2019-06-22T03:55:48,42.805,6.029,CST-1368DR,8952,12526,15516,0.026,551
2019-06-22T03:58:49,42.805,6.029,CST-1368DR,8952,12527,15518,0.025,551
2019-06-22T04:01:51,42.805,6.029,CST-1368DR,8952,12526,15517,0.025,551
2019-06-22T04:04:52,42.805,6.029,CST-1368DR,8952,12525,15515,0.026,551
2019-06-22T04:07:54,42.805,6.029,CST-1368DR,8952,12525,15515,0.026,550
2019-06-22T04:10:55,42.805,6.029,CST-1368DR,8951,12527,15519,0.025,551
2019-06-22T04:13:56,42.805,6.029,CST-1368DR,8951,12527,15519,0.025,551
2019-06-22T04:16:58,42.805,6.029,CST-1368DR,8951,12526,15518,0.025,551
2019-06-22T04:19:59,42.805,6.029,CST-1368DR,8951,12527,15519,0.025,551
2019-06-22T04:23:01,42.805,6.029,CST-1368DR,8951,12523,15514,0.026,551
2019-06-22T04:26:02,42.805,6.029,CST-1368DR,8951,12525,15517,0.025,551
2019-06-22T04:29:04,42.805,6.029,CST-1368DR,8951,12527,15519,0.025,550
2019-06-22T04:32:05,42.805,6.029,CST-1368DR,8951,12526,15518,0.025,551
2019-06-22T04:35:06,42.805,6.029,CST-1368DR,8951,12526,15518,0.025,551
2019-06-22T04:38:08,42.805,6.029,CST-1368DR,8951,12525,15516,0.026,551
2019-06-22T04:41:09,42.805,6.029,CST-1368DR,8951,12524,15515,0.026,551
2019-06-22T04:44:11,42.805,6.029,CST-1368DR,8951,12519,15509,0.028,551
2019-06-22T04:47:12,42.805,6.029,CST-1368DR,8951,12524,15515,0.026,551
2019-06-22T04:50:13,42.805,6.029,CST-1368DR,8951,12526,15518,0.025,550
2019-06-22T04:53:15,42.805,6.029,CST-1368DR,8951,12526,15518,0.025,550
2019-06-22T04:56:16,42.805,6.029,CST-1368DR,8951,12526,15518,0.025,551
2019-06-22T04:59:18,42.805,6.029,CST-1368DR,8951,12526,15518,0.025,551
2019-06-22T05:02:19,42.805,6.029,CST-1368DR,8951,12525,15517,0.025,550
2019-06-22T05:05:20,42.805,6.029,CST-1368DR,8951,12526,15518,0.025,551
2019-06-22T05:08:22,42.805,6.029,CST-1368DR,8951,12523,15514,0.026,550
2019-06-22T05:11:23,42.805,6.029,CST-1368DR,8951,12523,15514,0.026,551
2019-06-22T05:14:25,42.805,6.029,CST-1368DR,8951,12526,15518,0.025,551
2019-06-22T05:17:26,42.805,6.029,CST-1368DR,8951,12525,15517,0.025,551
2019-06-22T05:20:27,42.805,6.029,CST-1368DR,8951,12525,15517,0.025,551
2019-06-22T05:23:29,42.805,6.029,CST-1368DR,8951,12525,15517,0.025,551
2019-06-22T05:26:30,42.805,6.029,CST-1368DR,8951,12527,15519,0.025,550
2019-06-22T05:29:32,42.805,6.029,CST-1368DR,8951,12524,15515,0.026,551
2019-06-22T05:32:33,42.805,6.029,CST-1368DR,8951,12525,15516,0.026,550
2019-06-22T05:35:35,42.805,6.029,CST-1368DR,8951,12526,15518,0.025,551
2019-06-22T05:38:36,42.805,6.029,CST-1368DR,8951,12527,15519,0.025,551
2019-06-22T05:41:37,42.805,6.029,CST-1368DR,8951,12526,15518,0.025,551
2019-06-22T05:44:39,42.805,6.029,CST-1368DR,8951,12526,15518,0.025,551
2019-06-22T05:47:40,42.805,6.029,CST-1368DR,8951,12526,15518,0.025,551
2019-06-22T05:50:42,42.805,6.029,CST-1368DR,8951,12525,15517,0.025,551
2019-06-22T05:53:43,42.805,6.029,CST-1368DR,8951,12523,15514,0.026,551
2019-06-22T05:56:44,42.805,6.029,CST-1368DR,8951,12523,15514,0.026,551
2019-06-22T05:59:46,42.805,6.029,CST-1368DR,8951,12525,15516,0.026,551
2019-06-22T06:02:47,42.805,6.029,CST-1368DR,8951,12525,15517,0.025,551
2019-06-22T06:05:49,42.805,6.029,CST-1368DR,8951,12525,15516,0.026,551
2019-06-22T06:08:50,42.805,6.029,CST-1368DR,8951,12525,15516,0.026,551
2019-06-22T06:11:51,42.805,6.029,CST-1368DR,8950,12515,15506,0.028,551
2019-06-22T06:14:53,42.805,6.029,CST-1368DR,8950,12524,15518,0.025,551
2019-06-22T06:17:54,42.805,6.029,CST-1368DR,8950,12522,15515,0.026,550
2019-06-22T06:20:56,42.805,6.029,CST-1368DR,8950,12525,15519,0.025,551
2019-06-22T06:23:57,42.805,6.029,CST-1368DR,8950,12526,15519,0.025,550
2019-06-22T06:26:58,42.805,6.029,CST-1368DR,8950,12526,15519,0.025,551
2019-06-22T06:30:00,42.805,6.029,CST-1368DR,8950,12525,15519,0.025,551
2019-06-22T06:33:01,42.805,6.029,CST-1368DR,8950,12524,15517,0.025,551
2019-06-22T06:36:03,42.805,6.029,CST-1368DR,8950,12522,15514,0.026,551
2019-06-22T06:39:04,42.805,6.029,CST-1368DR,8950,12524,15517,0.025,551
2019-06-22T06:42:06,42.805,6.029,CST-1368DR,8950,12525,15519,0.025,551
2019-06-22T06:45:07,42.805,6.029,CST-1368DR,8950,12520,15512,0.027,551
2019-06-22T06:48:08,42.805,6.029,CST-1368DR,8950,12523,15515,0.026,551
2019-06-22T06:51:10,42.805,6.029,CST-1368DR,8950,12525,15519,0.025,551
2019-06-22T06:54:11,42.805,6.029,CST-1368DR,8950,12510,15499,0.030,551
2019-06-22T06:57:13,42.805,6.029,CST-1368DR,8950,12525,15518,0.025,551
2019-06-22T07:00:14,42.805,6.029,CST-1368DR,8950,12523,15516,0.026,551
2019-06-22T07:03:15,42.805,6.029,CST-1368DR,8950,12524,15517,0.025,551
2019-06-22T07:06:17,42.805,6.029,CST-1368DR,8950,12519,15511,0.027,551
2019-06-22T07:09:18,42.805,6.029,CST-1368DR,8950,12521,15513,0.026,551
2019-06-22T07:12:20,42.805,6.029,CST-1368DR,8950,12522,15515,0.026,551
2019-06-22T07:15:21,42.805,6.029,CST-1368DR,8950,12525,15518,0.025,551
2019-06-22T07:18:22,42.805,6.029,CST-1368DR,8950,12523,15516,0.026,551
2019-06-22T07:21:24,42.805,6.029,CST-1368DR,8950,12523,15515,0.026,551
2019-06-22T07:24:25,42.805,6.029,CST-1368DR,8950,12523,15516,0.026,550
2019-06-22T07:27:27,42.805,6.029,CST-1368DR,8950,12524,15517,0.025,551
2019-06-22T07:30:28,42.805,6.029,CST-1368DR,8950,12520,15513,0.026,551
2019-06-22T07:33:30,42.805,6.029,CST-1368DR,8950,12524,15517,0.025,551
2019-06-22T07:36:31,42.805,6.029,CST-1368DR,8950,12520,15512,0.027,550
2019-06-22T07:39:32,42.805,6.029,CST-1368DR,8950,12524,15517,0.025,551
2019-06-22T07:42:34,42.805,6.029,CST-1368DR,8949,12520,15513,0.026,551
2019-06-22T07:45:35,42.805,6.029,CST-1368DR,8950,12526,15520,0.025,551
2019-06-22T07:48:37,42.805,6.029,CST-1368DR,8949,12523,15518,0.025,551
2019-06-22T07:51:38,42.805,6.029,CST-1368DR,8949,12522,15516,0.026,551
2019-06-22T07:54:39,42.805,6.029,CST-1368DR,8949,12521,15515,0.026,551
2019-06-22T07:57:41,42.805,6.029,CST-1368DR,8949,12517,15510,0.027,551
2019-06-22T08:00:42,42.805,6.029,CST-1368DR,8949,12522,15516,0.026,551
2019-06-22T08:03:44,42.805,6.029,CST-1368DR,8949,12513,15506,0.028,551
2019-06-22T08:06:45,42.805,6.029,CST-1368DR,8949,12523,15518,0.025,551
2019-06-22T08:09:46,42.805,6.029,CST-1368DR,8949,12519,15512,0.027,551
2019-06-22T08:12:48,42.805,6.029,CST-1368DR,8949,12522,15516,0.026,551
2019-06-22T08:15:49,42.805,6.029,CST-1368DR,8949,12522,15516,0.026,551
2019-06-22T08:18:51,42.805,6.029,CST-1368DR,8949,12522,15516,0.026,550
2019-06-22T08:21:52,42.805,6.029,CST-1368DR,8949,12524,15518,0.025,551
2019-06-22T08:24:53,42.805,6.029,CST-1368DR,8949,12522,15516,0.026,551
2019-06-22T08:27:55,42.805,6.029,CST-1368DR,8949,12521,15515,0.026,551
2019-06-22T08:30:56,42.805,6.029,CST-1368DR,8949,12521,15515,0.026,551
2019-06-22T08:33:58,42.805,6.029,CST-1368DR,8948,12520,15515,0.026,550
2019-06-22T08:36:59,42.805,6.029,CST-1368DR,8948,12518,15513,0.026,550
2019-06-22T08:40:01,42.805,6.029,CST-1368DR,8948,12522,15518,0.025,551
2019-06-22T08:43:02,42.805,6.029,CST-1368DR,8948,12519,15515,0.026,551
2019-06-22T08:46:03,42.805,6.029,CST-1368DR,8948,12514,15508,0.028,551
2019-06-22T08:49:05,42.805,6.029,CST-1368DR,8948,12519,15515,0.026,551
2019-06-22T08:52:06,42.805,6.029,CST-1368DR,8948,12518,15513,0.026,551
2019-06-22T08:55:08,42.805,6.029,CST-1368DR,8948,12521,15517,0.025,551
2019-06-22T08:58:09,42.805,6.029,CST-1368DR,8948,12520,15516,0.026,551
2019-06-22T09:01:10,42.805,6.029,CST-1368DR,8947,12518,15515,0.026,551
2019-06-22T09:04:12,42.805,6.029,CST-1368DR,8947,12514,15510,0.027,551
2019-06-22T09:07:13,42.805,6.029,CST-1368DR,8948,12520,15516,0.026,550
2019-06-22T09:10:15,42.805,6.029,CST-1368DR,8947,12518,15515,0.026,551
2019-06-22T09:13:16,42.805,6.029,CST-1368DR,8948,12519,15515,0.026,551
2019-06-22T09:16:17,42.805,6.029,CST-1368DR,8948,12519,15514,0.026,551
2019-06-22T09:19:19,42.805,6.029,CST-1368DR,8948,12521,15517,0.025,551
2019-06-22T09:22:20,42.805,6.029,CST-1368DR,8948,12520,15515,0.026,551
2019-06-22T09:25:22,42.805,6.029,CST-1368DR,8948,12517,15511,0.027,551
2019-06-22T09:28:23,42.805,6.029,CST-1368DR,8948,12517,15511,0.027,550
2019-06-22T09:31:24,42.805,6.029,CST-1368DR,8947,12512,15507,0.028,551
2019-06-22T09:34:26,42.805,6.029,CST-1368DR,8947,12520,15517,0.025,551
2019-06-22T09:37:27,42.805,6.029,CST-1368DR,8947,12520,15517,0.025,550
2019-06-22T09:40:29,42.805,6.029,CST-1368DR,8947,12518,15514,0.026,551
2019-06-22T09:43:30,42.805,6.029,CST-1368DR,8948,12518,15512,0.027,551
2019-06-22T09:46:32,42.805,6.029,CST-1368DR,8948,12522,15518,0.025,551
2019-06-22T09:49:33,42.805,6.029,CST-1368DR,8947,12515,15511,0.027,551
2019-06-22T09:52:34,42.805,6.029,CST-1368DR,8947,12520,15517,0.025,550
2019-06-22T09:55:36,42.805,6.029,CST-1368DR,8947,12521,15518,0.025,550
2019-06-22T09:58:37,42.805,6.029,CST-1368DR,8947,12517,15513,0.026,550
2019-06-22T10:01:39,42.805,6.029,CST-1368DR,8947,12518,15515,0.026,551
2019-06-22T10:04:40,42.805,6.029,CST-1368DR,8947,12508,15502,0.029,551
2019-06-22T10:07:41,42.805,6.029,CST-1368DR,8947,12513,15508,0.028,550
2019-06-22T10:10:43,42.805,6.029,CST-1368DR,8947,12511,15506,0.028,551
2019-06-22T10:13:44,42.805,6.029,CST-1368DR,8947,12513,15508,0.028,551
2019-06-22T10:16:46,42.805,6.029,CST-1368DR,8947,12511,15506,0.028,551
2019-06-22T10:19:47,42.805,6.029,CST-1368DR,8947,12521,15518,0.025,551
2019-06-22T10:22:48,42.805,6.029,CST-1368DR,8947,12519,15516,0.026,551
2019-06-22T10:25:50,42.805,6.029,CST-1368DR,8947,12517,15513,0.026,551
2019-06-22T10:28:51,42.805,6.029,CST-1368DR,8947,12517,15513,0.026,551
2019-06-22T10:31:53,42.805,6.029,CST-1368DR,8947,12509,15503,0.029,551
2019-06-22T10:34:54,42.805,6.029,CST-1368DR,8947,12511,15506,0.028,551
2019-06-22T10:37:55,42.805,6.029,CST-1368DR,8947,12516,15512,0.027,551
2019-06-22T10:40:57,42.805,6.029,CST-1368DR,8947,12517,15513,0.026,551
2019-06-22T10:43:58,42.805,6.029,CST-1368DR,8947,12515,15510,0.027,551
2019-06-22T10:47:00,42.805,6.029,CST-1368DR,8947,12507,15500,0.030,551
2019-06-22T10:50:01,42.805,6.029,CST-1368DR,8947,12511,15506,0.028,550
2019-06-22T10:53:03,42.805,6.029,CST-1368DR,8947,12517,15513,0.026,551
2019-06-22T10:56:04,42.805,6.029,CST-1368DR,8947,12515,15510,0.027,550
2019-06-22T10:59:05,42.805,6.029,CST-1368DR,8947,12517,15513,0.026,551
2019-06-22T11:02:07,42.805,6.029,CST-1368DR,8947,12516,15512,0.027,551
2019-06-22T11:05:08,42.805,6.029,CST-1368DR,8947,12507,15501,0.030,550
2019-06-22T11:08:10,42.805,6.029,CST-1368DR,8947,12513,15509,0.028,550
2019-06-22T11:11:11,42.805,6.029,CST-1368DR,8946,12506,15502,0.029,551
2019-06-22T11:14:12,42.805,6.029,CST-1368DR,8946,12507,15502,0.029,550
2019-06-22T11:17:14,42.805,6.029,CST-1368DR,8946,12503,15497,0.031,550
2019-06-22T11:20:15,42.805,6.029,CST-1368DR,8946,12512,15509,0.028,551
2019-06-22T11:23:17,42.805,6.029,CST-1368DR,8946,12515,15512,0.027,551
2019-06-22T11:26:18,42.805,6.029,CST-1368DR,8946,12510,15506,0.028,551
2019-06-22T11:29:19,42.805,6.029,CST-1368DR,8946,12512,15508,0.028,550
2019-06-22T11:32:21,42.805,6.029,CST-1368DR,8946,12513,15510,0.027,550
2019-06-22T11:35:22,42.805,6.029,CST-1368DR,8946,12512,15509,0.028,551
2019-06-22T11:38:24,42.805,6.029,CST-1368DR,8946,12513,15510,0.027,551
2019-06-22T11:41:25,42.805,6.029,CST-1368DR,8946,12513,15510,0.027,551
2019-06-22T11:44:26,42.805,6.029,CST-1368DR,8946,12511,15508,0.028,550
2019-06-22T11:47:28,42.805,6.029,CST-1368DR,8946,12512,15509,0.028,551
2019-06-22T11:50:29,42.805,6.029,CST-1368DR,8946,12508,15504,0.029,551
2019-06-22T11:53:31,42.805,6.029,CST-1368DR,8946,12503,15498,0.030,550
2019-06-22T11:56:32,42.805,6.029,CST-1368DR,8946,12501,15495,0.031,551
2019-06-22T11:59:34,42.805,6.029,CST-1368DR,8946,12509,15504,0.029,551
2019-06-22T12:02:35,42.805,6.029,CST-1368DR,8946,12502,15497,0.031,551
2019-06-22T12:05:36,42.805,6.029,CST-1368DR,8946,12501,15495,0.031,551
2019-06-22T12:08:38,42.805,6.029,CST-1368DR,8946,12512,15508,0.028,550
2019-06-22T12:11:39,42.805,6.029,CST-1368DR,8946,12502,15496,0.031,551
2019-06-22T12:14:41,42.805,6.029,CST-1368DR,8946,12511,15507,0.028,550
2019-06-22T12:17:42,42.805,6.029,CST-1368DR,8946,12509,15505,0.029,550
2019-06-22T12:20:43,42.805,6.029,CST-1368DR,8946,12500,15494,0.031,551
2019-06-22T12:23:45,42.805,6.029,CST-1368DR,8946,12505,15500,0.030,551
2019-06-22T12:26:46,42.805,6.029,CST-1368DR,8946,12514,15511,0.027,550
2019-06-22T12:29:48,42.805,6.029,CST-1368DR,8946,12510,15506,0.028,551
2019-06-22T12:32:49,42.805,6.029,CST-1368DR,8946,12510,15506,0.028,551
2019-06-22T12:35:50,42.805,6.029,CST-1368DR,8946,12508,15504,0.029,551
2019-06-22T12:38:52,42.805,6.029,CST-1368DR,8946,12506,15501,0.030,551
2019-06-22T12:41:53,42.805,6.029,CST-1368DR,8946,12508,15504,0.029,551
2019-06-22T12:44:55,42.805,6.029,CST-1368DR,8946,12515,15513,0.026,550
2019-06-22T12:47:56,42.805,6.029,CST-1368DR,8946,12520,15519,0.025,551
2019-06-22T12:50:57,42.805,6.029,CST-1368DR,8946,12513,15509,0.028,551
2019-06-22T12:53:59,42.805,6.029,CST-1368DR,8946,12514,15512,0.027,551
2019-06-22T12:57:00,42.805,6.029,CST-1368DR,8946,12518,15516,0.026,551
2019-06-22T13:00:02,42.805,6.029,CST-1368DR,8946,12517,15515,0.026,551
2019-06-22T13:03:03,42.805,6.029,CST-1368DR,8946,12517,15515,0.026,550
2019-06-22T13:06:05,42.805,6.029,CST-1368DR,8946,12518,15516,0.026,551
2019-06-22T13:09:06,42.805,6.029,CST-1368DR,8946,12520,15519,0.025,550
2019-06-22T13:12:07,42.805,6.029,CST-1368DR,8946,12515,15513,0.026,551
2019-06-22T13:15:09,42.805,6.029,CST-1368DR,8946,12519,15517,0.025,551
2019-06-22T13:18:10,42.805,6.029,CST-1368DR,8946,12521,15520,0.025,551
2019-06-22T13:21:12,42.805,6.029,CST-1368DR,8946,12519,15517,0.025,551
2019-06-22T13:24:13,42.805,6.029,CST-1368DR,8946,12517,15515,0.026,551
2019-06-22T13:27:14,42.805,6.029,CST-1368DR,8946,12519,15517,0.025,550
2019-06-22T13:30:16,42.805,6.029,CST-1368DR,8946,12520,15519,0.025,551
2019-06-22T13:33:17,42.805,6.029,CST-1368DR,8945,12480,15470,0.038,551
2019-06-22T13:36:19,42.805,6.029,CST-1368DR,8945,12501,15497,0.031,551
2019-06-22T13:39:20,42.805,6.029,CST-1368DR,8946,12516,15513,0.026,551
2019-06-22T13:42:21,42.805,6.029,CST-1368DR,8945,12518,15517,0.025,551
2019-06-22T13:45:23,42.805,6.029,CST-1368DR,8945,12518,15517,0.025,551
2019-06-22T13:48:24,42.805,6.029,CST-1368DR,8945,12510,15508,0.028,550
2019-06-22T13:51:26,42.805,6.029,CST-1368DR,8945,12517,15516,0.026,550
2019-06-22T13:54:27,42.805,6.029,CST-1368DR,8945,12517,15516,0.026,551
2019-06-22T13:57:28,42.805,6.029,CST-1368DR,8945,12517,15517,0.025,550
2019-06-22T14:00:30,42.805,6.029,CST-1368DR,8944,12513,15514,0.026,551
2019-06-22T14:03:31,42.805,6.029,CST-1368DR,8944,12512,15512,0.027,551
2019-06-22T14:06:33,42.805,6.029,CST-1368DR,8944,12514,15514,0.026,551
2019-06-22T14:09:34,42.805,6.029,CST-1368DR,8944,12511,15510,0.027,550
2019-06-22T14:12:36,42.805,6.029,CST-1368DR,8943,12473,15465,0.039,550
2019-06-22T14:15:37,42.805,6.029,CST-1368DR,8943,12494,15492,0.032,551
2019-06-22T14:18:38,42.805,6.029,CST-1368DR,8943,12489,15484,0.034,551
2019-06-22T14:21:40,42.805,6.029,CST-1368DR,8943,12489,15484,0.034,551
2019-06-22T14:24:41,42.805,6.029,CST-1368DR,8943,12507,15507,0.028,550
2019-06-22T14:27:43,42.805,6.029,CST-1368DR,8943,12460,15449,0.043,550
2019-06-22T14:30:44,42.805,6.029,CST-1368DR,8943,12480,15474,0.037,551
2019-06-22T14:33:45,42.805,6.029,CST-1368DR,8943,12500,15499,0.030,551
2019-06-22T14:36:47,42.805,6.029,CST-1368DR,8943,12507,15507,0.028,551
2019-06-22T14:39:48,42.805,6.029,CST-1368DR,8943,12513,15514,0.026,551
2019-06-22T14:42:50,42.805,6.029,CST-1368DR,8943,12511,15513,0.026,550
2019-06-22T14:45:51,42.805,6.029,CST-1368DR,8943,12514,15516,0.026,551
2019-06-22T14:48:52,42.805,6.029,CST-1368DR,8944,12515,15516,0.026,550
2019-06-22T14:51:54,42.805,6.029,CST-1368DR,8944,12514,15514,0.026,551
2019-06-22T14:54:55,42.805,6.029,CST-1368DR,8944,12512,15511,0.027,551
2019-06-22T14:57:57,42.805,6.029,CST-1368DR,8944,12514,15514,0.026,551
2019-06-22T15:00:58,42.805,6.029,CST-1368DR,8944,12513,15513,0.026,551
2019-06-22T15:04:00,42.805,6.029,CST-1368DR,8944,12514,15514,0.026,551
2019-06-22T15:07:01,42.805,6.029,CST-1368DR,8945,12513,15512,0.027,551
2019-06-22T15:10:02,42.805,6.029,CST-1368DR,8945,12514,15513,0.026,551
2019-06-22T15:13:04,42.805,6.029,CST-1368DR,8945,12518,15518,0.025,551
2019-06-22T15:16:05,42.805,6.029,CST-1368DR,8945,12513,15511,0.027,551
2019-06-22T15:19:07,42.805,6.029,CST-1368DR,8944,12492,15487,0.033,551
2019-06-22T15:22:08,42.805,6.029,CST-1368DR,8945,12505,15502,0.029,550
2019-06-22T15:25:09,42.805,6.029,CST-1368DR,8945,12516,15515,0.026,551
2019-06-22T15:28:11,42.805,6.029,CST-1368DR,8945,12517,15516,0.026,551
2019-06-22T15:31:12,42.805,6.029,CST-1368DR,8945,12516,15515,0.026,551
2019-06-22T15:34:14,42.805,6.029,CST-1368DR,8945,12513,15512,0.027,551
2019-06-22T15:37:15,42.805,6.029,CST-1368DR,8945,12517,15517,0.025,550
2019-06-22T15:40:16,42.805,6.029,CST-1368DR,8945,12516,15516,0.026,551
2019-06-22T15:43:18,42.805,6.029,CST-1368DR,8945,12515,15514,0.026,551
2019-06-22T15:46:19,42.805,6.029,CST-1368DR,8945,12518,15517,0.025,550
2019-06-22T15:49:21,42.805,6.029,CST-1368DR,8945,12514,15513,0.026,551
2019-06-22T15:52:22,42.805,6.029,CST-1368DR,8945,12517,15517,0.025,551
2019-06-22T15:55:23,42.805,6.029,CST-1368DR,8944,12510,15509,0.028,551
2019-06-22T15:58:25,42.805,6.029,CST-1368DR,8945,12515,15514,0.026,551
2019-06-22T16:01:26,42.805,6.029,CST-1368DR,8945,12517,15517,0.025,551
2019-06-22T16:04:28,42.805,6.029,CST-1368DR,8945,12518,15517,0.025,551
2019-06-22T16:07:29,42.805,6.029,CST-1368DR,8945,12518,15517,0.025,551
2019-06-22T16:10:31,42.805,6.029,CST-1368DR,8945,12518,15517,0.025,551
2019-06-22T16:13:32,42.805,6.029,CST-1368DR,8944,12518,15519,0.025,551
2019-06-22T16:16:33,42.805,6.029,CST-1368DR,8944,12516,15517,0.025,551
2019-06-22T16:19:35,42.805,6.029,CST-1368DR,8944,12516,15516,0.026,551
2019-06-22T16:22:36,42.805,6.029,CST-1368DR,8944,12516,15517,0.025,551
2019-06-22T16:25:38,42.805,6.029,CST-1368DR,8944,12516,15516,0.026,551
2019-06-22T16:28:39,42.805,6.029,CST-1368DR,8944,12513,15513,0.026,551
2019-06-22T16:31:40,42.805,6.029,CST-1368DR,8944,12516,15517,0.025,551
2019-06-22T16:34:42,42.805,6.029,CST-1368DR,8944,12516,15516,0.026,550
2019-06-22T16:37:43,42.805,6.029,CST-1368DR,8944,12517,15518,0.025,550